Time,TemperatureF,DewpointF,PressureIn,WindDirection,WindDirectionDegrees,WindSpeedMPH,WindSpeedGustMPH,Humidity,HourlyPrecipIn,Conditions,Clouds,dailyrainin,SoftwareType,DateUTC
2013-01-15 00:03:00,24.0,15.0,30.29,WNW,286,0.0,0.0,67,0.00,,,0.00,,2013-01-15 05:03:00,
2013-01-15 00:12:00,23.0,13.0,30.29,West,263,0.0,0.0,65,0.00,,,0.00,,2013-01-15 05:12:00,
2013-01-15 00:22:00,23.0,13.0,30.29,West,263,0.0,0.0,65,0.00,,,0.00,,2013-01-15 05:22:00,
2013-01-15 00:33:00,23.0,13.0,30.29,West,268,0.0,0.0,66,0.00,,,0.00,,2013-01-15 05:33:00,
2013-01-15 00:42:00,23.0,13.0,30.29,West,268,0.0,0.0,66,0.00,,,0.00,,2013-01-15 05:42:00,
2013-01-15 00:53:00,23.0,13.0,30.29,West,276,0.0,0.0,65,0.00,,,0.00,,2013-01-15 05:53:00,
2013-01-15 01:02:00,23.0,12.0,30.29,West,276,0.0,0.0,63,0.00,,,0.00,,2013-01-15 06:02:00,
2013-01-15 01:12:00,23.0,12.0,30.29,West,276,0.0,0.0,63,0.00,,,0.00,,2013-01-15 06:12:00,
2013-01-15 01:22:00,23.0,13.0,30.29,West,264,0.0,0.0,65,0.00,,,0.00,,2013-01-15 06:22:00,
2013-01-15 01:33:00,23.0,13.0,30.29,West,277,0.0,0.0,66,0.00,,,0.00,,2013-01-15 06:33:00,
2013-01-15 01:43:00,23.0,13.0,30.29,West,277,0.0,0.0,66,0.00,,,0.00,,2013-01-15 06:43:00,
2013-01-15 01:53:00,23.0,14.0,30.29,West,264,0.0,0.0,69,0.00,,,0.00,,2013-01-15 06:53:00,
2013-01-15 02:02:00,23.0,14.0,30.29,West,276,0.0,0.0,69,0.00,,,0.00,,2013-01-15 07:02:00,
2013-01-15 02:12:00,23.0,14.0,30.29,West,276,0.0,0.0,69,0.00,,,0.00,,2013-01-15 07:12:00,
2013-01-15 02:22:00,23.0,14.0,30.29,West,280,0.0,0.0,67,0.00,,,0.00,,2013-01-15 07:22:00,
2013-01-15 02:33:00,22.0,13.0,30.30,WNW,287,0.0,0.0,68,0.00,,,0.00,,2013-01-15 07:33:00,
2013-01-15 02:42:00,22.0,13.0,30.30,WNW,287,0.0,0.0,68,0.00,,,0.00,,2013-01-15 07:42:00,
2013-01-15 02:53:00,22.0,14.0,30.30,West,281,0.0,0.0,70,0.00,,,0.00,,2013-01-15 07:53:00,
2013-01-15 03:02:00,22.0,14.0,30.30,WNW,302,0.0,0.0,71,0.00,,,0.00,,2013-01-15 08:02:00,
2013-01-15 03:12:00,22.0,14.0,30.30,WNW,302,0.0,0.0,71,0.00,,,0.00,,2013-01-15 08:12:00,
2013-01-15 03:22:00,22.0,13.0,30.31,West,281,0.0,0.0,69,0.00,,,0.00,,2013-01-15 08:22:00,
2013-01-15 03:33:00,21.0,12.0,30.32,WNW,287,0.0,0.0,67,0.00,,,0.00,,2013-01-15 08:33:00,
2013-01-15 03:42:00,21.0,12.0,30.32,WNW,287,0.0,0.0,67,0.00,,,0.00,,2013-01-15 08:42:00,
2013-01-15 03:53:00,21.0,11.0,30.32,WNW,286,0.0,0.0,66,0.00,,,0.00,,2013-01-15 08:53:00,
2013-01-15 04:02:00,20.0,11.0,30.32,WNW,303,0.0,0.0,66,0.00,,,0.00,,2013-01-15 09:02:00,
2013-01-15 04:12:00,20.0,11.0,30.32,WNW,303,0.0,0.0,66,0.00,,,0.00,,2013-01-15 09:12:00,
2013-01-15 04:22:00,20.0,10.0,30.32,WNW,285,0.0,0.0,65,0.00,,,0.00,,2013-01-15 09:22:00,
2013-01-15 04:33:00,19.0,9.0,30.32,West,274,0.0,0.0,65,0.00,,,0.00,,2013-01-15 09:33:00,
2013-01-15 04:42:00,19.0,9.0,30.32,West,274,0.0,0.0,65,0.00,,,0.00,,2013-01-15 09:42:00,
2013-01-15 04:52:00,19.0,10.0,30.32,NW,308,0.0,0.0,67,0.00,,,0.00,,2013-01-15 09:52:00,
2013-01-15 05:02:00,19.0,10.0,30.32,WNW,301,0.0,0.0,67,0.00,,,0.00,,2013-01-15 10:02:00,
2013-01-15 05:12:00,19.0,10.0,30.32,WNW,301,0.0,0.0,67,0.00,,,0.00,,2013-01-15 10:12:00,
2013-01-15 05:22:00,19.0,9.0,30.32,WNW,286,0.0,0.0,65,0.00,,,0.00,,2013-01-15 10:22:00,
2013-01-15 05:32:00,19.0,10.0,30.31,WNW,301,0.0,0.0,66,0.00,,,0.00,,2013-01-15 10:32:00,
2013-01-15 05:42:00,19.0,10.0,30.31,WNW,301,0.0,0.0,66,0.00,,,0.00,,2013-01-15 10:42:00,
2013-01-15 05:52:00,19.0,10.0,30.32,NNW,341,0.0,0.0,67,0.00,,,0.00,,2013-01-15 10:52:00,
2013-01-15 06:02:00,19.0,10.0,30.32,NW,310,0.0,0.0,66,0.00,,,0.00,,2013-01-15 11:02:00,
2013-01-15 06:12:00,19.0,10.0,30.32,NW,310,0.0,0.0,66,0.00,,,0.00,,2013-01-15 11:12:00,
2013-01-15 06:22:00,19.0,10.0,30.32,NW,324,0.0,0.0,67,0.00,,,0.00,,2013-01-15 11:22:00,
2013-01-15 06:33:00,18.0,9.0,30.32,WNW,294,0.0,0.0,67,0.00,,,0.00,,2013-01-15 11:33:00,
2013-01-15 06:42:00,18.0,9.0,30.32,WNW,294,0.0,0.0,67,0.00,,,0.00,,2013-01-15 11:42:00,
2013-01-15 06:53:00,18.0,9.0,30.33,WNW,287,0.0,0.0,67,0.00,,,0.00,,2013-01-15 11:53:00,
2013-01-15 07:03:00,18.0,9.0,30.33,WNW,287,0.0,0.0,68,0.00,,,0.00,,2013-01-15 12:03:00,
2013-01-15 07:12:00,18.0,9.0,30.33,WNW,287,0.0,0.0,68,0.00,,,0.00,,2013-01-15 12:12:00,
2013-01-15 07:22:00,18.0,10.0,30.33,WNW,287,0.0,0.0,69,0.00,,,0.00,,2013-01-15 12:22:00,
2013-01-15 07:33:00,17.0,9.0,30.32,WNW,287,0.0,0.0,69,0.00,,,0.00,,2013-01-15 12:33:00,
2013-01-15 07:43:00,17.0,9.0,30.32,WNW,287,0.0,0.0,69,0.00,,,0.00,,2013-01-15 12:43:00,
2013-01-15 07:53:00,17.0,9.0,30.32,WNW,287,0.0,0.0,70,0.00,,,0.00,,2013-01-15 12:53:00,
2013-01-15 08:03:00,16.0,9.0,30.32,WNW,287,0.0,0.0,72,0.00,,,0.00,,2013-01-15 13:03:00,
2013-01-15 08:12:00,16.0,9.0,30.32,WNW,287,0.0,0.0,72,0.00,,,0.00,,2013-01-15 13:12:00,
2013-01-15 08:23:00,16.0,9.0,30.32,WNW,287,0.0,0.0,73,0.00,,,0.00,,2013-01-15 13:23:00,
2013-01-15 08:33:00,16.0,9.0,30.31,WSW,256,0.0,0.0,74,0.00,,,0.00,,2013-01-15 13:33:00,
2013-01-15 08:43:00,16.0,9.0,30.31,WSW,256,0.0,0.0,74,0.00,,,0.00,,2013-01-15 13:43:00,
2013-01-15 08:53:00,15.0,9.0,30.32,SW,229,0.0,0.0,76,0.00,,,0.00,,2013-01-15 13:53:00,
2013-01-15 09:03:00,15.0,9.0,30.33,SW,226,0.0,0.0,77,0.00,,,0.00,,2013-01-15 14:03:00,
2013-01-15 09:12:00,15.0,9.0,30.33,SW,226,0.0,0.0,77,0.00,,,0.00,,2013-01-15 14:12:00,
2013-01-15 09:23:00,15.0,9.0,30.34,SSW,213,0.0,0.0,78,0.00,,,0.00,,2013-01-15 14:23:00,
2013-01-15 09:33:00,16.0,10.0,30.33,SSE,166,0.0,0.0,77,0.00,,,0.00,,2013-01-15 14:33:00,
2013-01-15 09:43:00,16.0,10.0,30.33,SSE,166,0.0,0.0,77,0.00,,,0.00,,2013-01-15 14:43:00,
2013-01-15 09:54:00,17.0,10.0,30.34,SSW,211,0.0,0.0,73,0.00,,,0.00,,2013-01-15 14:54:00,
2013-01-15 10:03:00,20.0,11.0,30.33,SSW,209,0.0,0.0,68,0.00,,,0.00,,2013-01-15 15:03:00,
2013-01-15 10:12:00,20.0,11.0,30.33,SSW,209,0.0,0.0,68,0.00,,,0.00,,2013-01-15 15:12:00,
2013-01-15 10:23:00,21.0,11.0,30.33,South,188,0.0,0.0,66,0.00,,,0.00,,2013-01-15 15:23:00,
2013-01-15 10:33:00,22.0,12.0,30.32,SSW,198,0.0,0.0,65,0.00,,,0.00,,2013-01-15 15:33:00,
2013-01-15 10:43:00,22.0,12.0,30.32,SSW,198,0.0,0.0,65,0.00,,,0.00,,2013-01-15 15:43:00,
2013-01-15 10:53:00,23.0,13.0,30.31,SSW,209,0.0,0.0,64,0.00,,,0.00,,2013-01-15 15:53:00,
2013-01-15 11:03:00,24.0,12.0,30.30,WSW,252,0.0,0.0,60,0.00,,,0.00,,2013-01-15 16:03:00,
2013-01-15 11:12:00,24.0,12.0,30.30,WSW,252,0.0,0.0,60,0.00,,,0.00,,2013-01-15 16:12:00,
2013-01-15 11:23:00,25.0,13.0,30.30,SSW,212,0.0,0.0,59,0.00,,,0.00,,2013-01-15 16:23:00,
2013-01-15 11:33:00,25.0,12.0,30.30,SW,232,0.0,0.0,57,0.00,,,0.00,,2013-01-15 16:33:00,
2013-01-15 11:43:00,25.0,12.0,30.30,SW,232,0.0,0.0,57,0.00,,,0.00,,2013-01-15 16:43:00,
2013-01-15 11:53:00,25.0,13.0,30.30,SSW,204,0.0,0.0,60,0.00,,,0.00,,2013-01-15 16:53:00,
2013-01-15 12:03:00,26.0,14.0,30.29,SW,227,0.0,0.0,59,0.00,,,0.00,,2013-01-15 17:03:00,
2013-01-15 12:12:00,26.0,14.0,30.29,SW,227,0.0,0.0,59,0.00,,,0.00,,2013-01-15 17:12:00,
2013-01-15 12:23:00,26.0,14.0,30.29,SW,215,0.0,0.0,60,0.00,,,0.00,,2013-01-15 17:23:00,
2013-01-15 12:33:00,27.0,14.0,30.28,SW,216,0.0,0.0,57,0.00,,,0.00,,2013-01-15 17:33:00,
2013-01-15 12:43:00,27.0,14.0,30.28,SW,216,0.0,0.0,57,0.00,,,0.00,,2013-01-15 17:43:00,
2013-01-15 12:53:00,26.0,14.0,30.27,SW,227,0.0,0.0,59,0.00,,,0.00,,2013-01-15 17:53:00,
2013-01-15 13:03:00,26.0,14.0,30.26,WSW,243,0.0,0.0,59,0.00,,,0.00,,2013-01-15 18:03:00,
2013-01-15 13:13:00,26.0,14.0,30.26,WSW,243,0.0,0.0,59,0.00,,,0.00,,2013-01-15 18:13:00,
2013-01-15 13:23:00,27.0,14.0,30.26,WSW,239,0.0,0.0,58,0.00,,,0.00,,2013-01-15 18:23:00,
2013-01-15 13:33:00,27.0,14.0,30.25,WSW,244,0.0,0.0,58,0.00,,,0.00,,2013-01-15 18:33:00,
2013-01-15 13:43:00,27.0,14.0,30.25,WSW,244,0.0,0.0,58,0.00,,,0.00,,2013-01-15 18:43:00,
2013-01-15 13:54:00,27.0,14.0,30.24,WSW,239,0.0,0.0,58,0.00,,,0.00,,2013-01-15 18:54:00,
2013-01-15 14:03:00,28.0,15.0,30.23,SW,230,0.0,0.0,58,0.00,,,0.00,,2013-01-15 19:03:00,
2013-01-15 14:13:00,28.0,15.0,30.23,SW,230,0.0,0.0,58,0.00,,,0.00,,2013-01-15 19:13:00,
2013-01-15 14:23:00,27.0,14.0,30.22,SSW,213,0.0,0.0,58,0.00,,,0.00,,2013-01-15 19:23:00,
2013-01-15 14:33:00,28.0,16.0,30.22,WSW,243,0.0,0.0,59,0.00,,,0.00,,2013-01-15 19:33:00,
2013-01-15 14:42:00,28.0,16.0,30.22,WSW,243,0.0,0.0,59,0.00,,,0.00,,2013-01-15 19:42:00,
2013-01-15 14:53:00,28.0,16.0,30.23,SW,235,0.0,0.0,59,0.00,,,0.00,,2013-01-15 19:53:00,
2013-01-15 15:03:00,27.0,15.0,30.23,SW,217,0.0,0.0,61,0.00,,,0.00,,2013-01-15 20:03:00,
2013-01-15 15:12:00,27.0,15.0,30.23,SW,217,0.0,0.0,61,0.00,,,0.00,,2013-01-15 20:12:00,
2013-01-15 15:23:00,27.0,16.0,30.22,SW,226,0.0,0.0,62,0.00,,,0.00,,2013-01-15 20:23:00,
2013-01-15 15:33:00,27.0,16.0,30.22,SW,220,0.0,0.0,62,0.00,,,0.00,,2013-01-15 20:33:00,
2013-01-15 15:43:00,27.0,16.0,30.22,SW,220,0.0,0.0,62,0.00,,,0.00,,2013-01-15 20:43:00,
2013-01-15 15:53:00,27.0,16.0,30.22,SW,217,0.0,0.0,62,0.00,,,0.00,,2013-01-15 20:53:00,
2013-01-15 16:03:00,27.0,16.0,30.21,SW,235,0.0,0.0,62,0.00,,,0.00,,2013-01-15 21:03:00,
2013-01-15 16:13:00,27.0,16.0,30.21,SW,235,0.0,0.0,62,0.00,,,0.00,,2013-01-15 21:13:00,
2013-01-15 16:23:00,27.0,16.0,30.20,SSW,206,0.0,0.0,62,0.00,,,0.00,,2013-01-15 21:23:00,
2013-01-15 16:33:00,27.0,16.0,30.19,SW,223,0.0,0.0,62,0.00,,,0.00,,2013-01-15 21:33:00,
2013-01-15 16:43:00,27.0,16.0,30.19,SW,223,0.0,0.0,62,0.00,,,0.00,,2013-01-15 21:43:00,
2013-01-15 16:53:00,27.0,15.0,30.19,SW,222,0.0,0.0,61,0.00,,,0.00,,2013-01-15 21:53:00,
2013-01-15 17:03:00,27.0,15.0,30.19,SW,225,0.0,0.0,61,0.00,,,0.00,,2013-01-15 22:03:00,
2013-01-15 17:12:00,27.0,15.0,30.19,SW,225,0.0,0.0,61,0.00,,,0.00,,2013-01-15 22:12:00,
2013-01-15 17:23:00,27.0,16.0,30.18,SSW,212,0.0,0.0,62,0.00,,,0.00,,2013-01-15 22:23:00,
2013-01-15 17:33:00,26.0,15.0,30.18,SSW,193,0.0,0.0,63,0.00,,,0.00,,2013-01-15 22:33:00,
2013-01-15 17:43:00,26.0,15.0,30.18,SSW,193,0.0,0.0,63,0.00,,,0.00,,2013-01-15 22:43:00,
2013-01-15 17:53:00,26.0,16.0,30.16,SSW,203,0.0,0.0,64,0.00,,,0.00,,2013-01-15 22:53:00,
2013-01-15 18:02:00,26.0,16.0,30.16,SSW,205,0.0,0.0,65,0.00,,,0.00,,2013-01-15 23:02:00,
2013-01-15 18:13:00,26.0,16.0,30.16,SSW,205,0.0,0.0,65,0.00,,,0.00,,2013-01-15 23:13:00,
2013-01-15 18:23:00,26.0,16.0,30.16,SW,220,0.0,0.0,66,0.00,,,0.00,,2013-01-15 23:23:00,
2013-01-15 18:33:00,26.0,17.0,30.16,SSW,205,0.0,0.0,67,0.00,,,0.00,,2013-01-15 23:33:00,
2013-01-15 18:43:00,26.0,17.0,30.16,SSW,205,0.0,0.0,67,0.00,,,0.00,,2013-01-15 23:43:00,
2013-01-15 18:53:00,26.0,17.0,30.16,SW,220,0.0,0.0,68,0.00,,,0.00,,2013-01-15 23:53:00,
2013-01-15 19:03:00,25.0,16.0,30.15,SSW,213,0.0,0.0,69,0.00,,,0.00,,2013-01-16 00:03:00,
2013-01-15 19:13:00,25.0,16.0,30.15,SSW,213,0.0,0.0,69,0.00,,,0.00,,2013-01-16 00:13:00,
2013-01-15 19:22:00,25.0,17.0,30.15,SSW,206,0.0,0.0,71,0.00,,,0.00,,2013-01-16 00:22:00,
2013-01-15 19:33:00,25.0,17.0,30.15,SSW,210,0.0,0.0,72,0.00,,,0.00,,2013-01-16 00:33:00,
2013-01-15 19:43:00,25.0,17.0,30.15,SSW,210,0.0,0.0,72,0.00,,,0.00,,2013-01-16 00:43:00,
2013-01-15 19:53:00,25.0,17.0,30.14,SSW,207,0.0,0.0,72,0.00,,,0.00,,2013-01-16 00:53:00,
2013-01-15 20:03:00,25.0,18.0,30.14,SSW,203,0.0,0.0,73,0.00,,,0.00,,2013-01-16 01:03:00,
2013-01-15 20:12:00,25.0,18.0,30.14,SSW,203,0.0,0.0,73,0.00,,,0.00,,2013-01-16 01:12:00,
2013-01-15 20:22:00,24.0,17.0,30.14,SSW,208,0.0,0.0,74,0.00,,,0.00,,2013-01-16 01:22:00,
2013-01-15 20:33:00,24.0,17.0,30.13,SW,214,0.0,0.0,75,0.00,,,0.00,,2013-01-16 01:33:00,
2013-01-15 20:43:00,24.0,17.0,30.13,SW,214,0.0,0.0,75,0.00,,,0.00,,2013-01-16 01:43:00,
2013-01-15 20:53:00,24.0,18.0,30.12,SSW,203,0.0,0.0,76,0.00,,,0.00,,2013-01-16 01:53:00,
2013-01-15 21:03:00,24.0,18.0,30.12,SSW,208,0.0,0.0,76,0.00,,,0.00,,2013-01-16 02:03:00,
2013-01-15 21:12:00,24.0,18.0,30.12,SSW,208,0.0,0.0,76,0.00,,,0.00,,2013-01-16 02:12:00,
2013-01-15 21:22:00,24.0,17.0,30.11,SSW,207,0.0,0.0,75,0.00,,,0.00,,2013-01-16 02:22:00,
2013-01-15 21:32:00,25.0,18.0,30.10,SSW,206,0.0,0.0,75,0.00,,,0.00,,2013-01-16 02:32:00,
2013-01-15 21:43:00,25.0,18.0,30.10,SSW,206,0.0,0.0,75,0.00,,,0.00,,2013-01-16 02:43:00,
2013-01-15 21:53:00,25.0,18.0,30.09,SW,216,0.0,0.0,75,0.00,,,0.00,,2013-01-16 02:53:00,
2013-01-15 22:03:00,25.0,18.0,30.08,SSW,208,0.0,0.0,75,0.00,,,0.00,,2013-01-16 03:03:00,
2013-01-15 22:12:00,25.0,18.0,30.07,SSW,208,0.0,0.0,74,0.00,,,0.00,,2013-01-16 03:12:00,
2013-01-15 22:22:00,25.0,18.0,30.07,SSW,208,0.0,0.0,74,0.00,,,0.00,,2013-01-16 03:22:00,
2013-01-15 22:33:00,25.0,18.0,30.07,SSW,207,0.0,0.0,75,0.00,,,0.00,,2013-01-16 03:33:00,
2013-01-15 22:43:00,25.0,18.0,30.07,SSW,207,0.0,0.0,75,0.00,,,0.00,,2013-01-16 03:43:00,
2013-01-15 22:53:00,25.0,18.0,30.07,SSW,207,0.0,0.0,75,0.00,,,0.00,,2013-01-16 03:53:00,
2013-01-15 23:02:00,25.0,18.0,30.05,SW,216,0.0,0.0,74,0.00,,,0.00,,2013-01-16 04:02:00,
2013-01-15 23:12:00,25.0,18.0,30.05,SW,216,0.0,0.0,74,0.00,,,0.00,,2013-01-16 04:12:00,
2013-01-15 23:22:00,24.0,17.0,30.05,SSW,206,0.0,0.0,75,0.00,,,0.00,,2013-01-16 04:22:00,
2013-01-15 23:33:00,24.0,17.0,30.03,SSW,213,0.0,0.0,75,0.00,,,0.00,,2013-01-16 04:33:00,
2013-01-15 23:42:00,24.0,17.0,30.03,SSW,213,0.0,0.0,75,0.00,,,0.00,,2013-01-16 04:42:00,
2013-01-15 23:53:00,24.0,17.0,30.03,SSW,204,0.0,0.0,75,0.00,,,0.00,,2013-01-16 04:53:00,